Vorticity
18 15 14 15 14 12 9 6 5 2 2 5 4 1 1 2 6 9 10 11 12 12 12 13 14 13 12 12 13 12 10 11 13 13 8 6 6 5 6 5 6 7 7 9 12 13 13 13 11 10 6 5 5 3 3 2 4 4 4 7 8 8 8 8 8 8 9 8 8 8 8 8 9 9 9 9 9 10 10 10 9 9 9 9 9 9 9 9
19 17 14 14 14 12 9 7 7 6 5 5 4 2 4 8 14 16 14 13 13 13 13 13 13 12 13 13 13 10 9 11 11 8 6 6 7 5 5 7 8 8 9 12 14 13 12 10 9 7 4 6 3 2 5 3 6 8 6 8 9 9 7 7 8 7 8 8 8 8 8 9 9 9 9 9 10 10 10 10 10 9 9 8 9 9 9 9
19 18 16 14 12 11 11 12 12 11 10 8 9 11 15 19 21 19 16 15 14 13 11 10 11 12 13 13 11 9 9 10 8 5 5 6 7 6 6 8 8 9 11 13 14 12 10 8 7 6 3 4 2 1 4 2 6 9 8 9 8 7 6 6 7 7 9 9 8 7 8 9 9 9 9 10 9 9 10 10 9 10 9 8 8 8 8 9
23 21 18 14 12 12 14 15 14 14 15 17 20 22 22 22 19 17 16 14 11 9 9 9 10 12 12 11 9 8 8 9 6 4 5 6 6 7 8 9 10 12 14 14 14 10 7 7 6 4 2 2 2 4 6 5 6 6 7 9 8 7 6 6 6 6 8 8 7 7 7 8 9 8 8 10 9 9 9 9 9 9 10 9 8 8 8 8
19 17 16 15 15 16 16 16 17 18 20 20 20 18 16 15 13 12 13 10 9 8 8 8 10 12 10 9 7 7 8 8 7 5 4 5 8 10 10 11 13 15 15 12 10 7 7 7 3 2 3 3 4 5 6 6 6 5 6 7 7 7 5 4 4 3 5 6 5 6 6 6 8 7 6 8 8 8 9 9 9 9 10 10 9 8 8 9
16 17 17 18 18 17 17 17 17 16 15 13 11 10 9 9 9 10 11 9 9 8 7 8 9 10 8 7 6 6 8 8 8 5 4 8 11 10 11 13 15 14 12 8 8 9 7 5 3 3 5 6 6 6 6 6 6 6 5 3 5 6 5 4 2 -0 0 3 3 2 3 4 6 5 5 6 6 7 7 7 8 7 8 9 9 9 8 9
18 19 19 18 17 15 14 13 12 11 11 11 12 13 14 14 14 13 12 11 9 7 7 8 8 8 8 6 5 6 7 8 10 8 8 11 11 12 14 15 13 11 9 8 8 6 2 2 4 5 6 7 7 7 7 8 8 7 5 3 3 4 4 5 4 2 -1 1 5 3 1 2 5 4 4 6 5 5 4 5 5 5 5 6 8 8 8 8
16 16 14 13 12 10 10 10 11 12 13 14 14 15 15 17 19 20 19 14 10 7 6 7 8 7 7 6 5 7 6 9 12 11 10 10 11 14 14 11 9 8 6 7 4 1 2 4 6 7 7 7 5 5 5 6 7 6 6 5 4 2 3 4 3 5 2 0 6 8 3 1 4 3 2 5 6 4 3 3 4 3 4 5 6 7 7 8
11 10 10 10 10 10 11 12 13 14 13 13 15 20 25 28 33 37 37 27 14 7 4 6 8 7 6 6 5 7 8 12 14 11 11 12 14 13 10 8 7 6 5 4 3 3 6 6 7 5 3 3 2 4 4 4 5 3 3 2 2 3 2 2 1 3 3 -1 3 8 5 1 3 3 2 4 5 5 4 3 3 3 4 5 6 7 7 8
10 11 11 11 12 13 13 14 13 13 12 14 18 24 32 37 40 43 46 38 19 6 5 5 7 7 6 6 6 10 12 14 13 12 14 14 13 10 7 7 5 5 4 2 4 6 6 5 5 3 2 3 3 4 3 2 2 1 2 1 1 2 0 2 2 2 1 -1 1 4 5 3 3 3 2 3 4 5 4 3 3 4 4 5 6 7 8 9
12 11 11 11 11 11 12 12 12 13 16 19 19 18 20 24 27 29 34 36 21 9 7 6 8 9 7 8 11 13 13 13 13 13 13 10 8 7 6 6 4 3 2 3 5 5 5 5 3 3 3 2 1 2 2 1 1 2 3 2 2 2 1 1 1 2 2 1 2 2 3 4 3 3 2 3 3 4 3 2 3 5 5 5 6 6 7 8
9 9 9 9 9 10 11 11 12 14 17 18 17 14 13 14 17 19 23 27 21 12 8 8 11 11 10 13 14 13 12 13 12 10 9 7 6 6 5 5 2 2 5 6 6 6 5 3 3 3 2 1 3 4 3 4 4 3 2 3 4 3 3 4 2 2 1 2 3 3 3 3 4 3 3 4 3 3 3 2 4 5 4 6 6 6 6 7
8 8 8 8 9 10 11 11 11 11 12 13 11 10 9 9 12 15 19 22 21 18 15 15 13 12 13 13 11 9 10 10 8 6 7 6 6 6 4 3 3 5 8 6 5 6 5 3 4 5 6 6 6 5 3 3 3 3 1 1 1 1 3 4 4 3 2 3 3 3 4 2 3 2 3 5 3 3 3 2 4 5 4 5 6 6 5 5
8 8 9 9 10 10 12 12 11 10 9 9 8 7 6 7 9 11 14 16 17 17 16 14 11 10 12 8 6 8 8 7 6 7 7 6 5 5 3 4 6 6 7 6 6 6 6 5 6 6 7 6 5 4 4 2 1 2 2 2 1 1 3 3 3 3 2 5 3 3 5 3 3 3 2 4 4 5 4 2 3 6 6 4 5 6 5 4
8 9 9 10 10 10 11 11 10 9 7 8 8 8 8 7 7 7 9 10 11 11 9 10 9 8 10 6 5 9 9 8 8 8 7 5 4 5 5 6 5 4 4 6 7 6 5 4 5 5 5 4 4 4 3 3 4 3 3 4 3 1 3 4 4 3 2 3 3 3 4 4 4 3 2 3 6 5 4 3 3 5 6 5 5 5 5 4
8 8 9 10 10 10 10 9 8 7 7 8 8 9 9 9 9 9 10 10 10 9 8 10 9 6 9 9 8 10 10 9 8 7 6 5 5 5 5 4 3 4 6 6 6 5 4 4 4 4 4 3 3 4 2 3 4 4 4 4 4 3 3 2 2 3 1 2 4 3 2 3 3 4 3 2 6 6 3 3 5 5 5 5 6 6 6 5
8 8 10 10 10 9 8 8 7 6 5 6 6 7 7 7 9 8 9 9 7 9 9 9 11 12 10 6 8 11 10 10 8 6 6 6 6 5 4 5 5 5 6 5 4 5 3 3 5 5 4 3 3 4 3 3 2 2 3 3 3 4 4 2 -0 2 1 -0 4 4 1 2 3 4 4 3 6 6 3 4 6 6 6 5 5 6 7 6
9 10 10 9 9 7 7 7 6 7 6 5 5 5 6 7 8 8 9 8 7 11 11 10 11 9 6 4 8 12 11 9 7 6 8 7 7 6 6 6 5 4 5 3 3 3 1 2 4 2 2 3 3 3 3 4 4 3 4 4 2 1 2 1 -0 1 1 -0 1 3 2 2 3 4 4 3 5 4 3 5 6 6 7 7 5 5 7 8
10 10 9 8 8 7 7 7 6 7 6 6 5 4 7 8 8 9 11 8 5 7 10 9 4 0 5 7 7 9 9 8 9 9 9 10 9 7 7 7 5 5 4 3 2 2 3 3 1 1 3 3 1 2 3 4 5 5 4 3 2 1 1 1 1 1 1 -0 1 4 4 2 4 6 4 3 6 4 2 3 4 6 8 8 7 6 6 8
8 8 7 7 7 6 6 6 6 6 5 5 4 4 4 2 2 4 5 5 2 3 7 5 -1 -1 6 7 7 10 12 11 12 12 9 9 8 6 7 6 5 5 4 6 5 1 3 2 -1 3 4 1 0 3 5 5 5 3 3 3 2 2 2 1 1 1 1 2 3 4 3 1 4 6 4 4 7 5 3 3 6 8 7 7 7 6 7 8
7 7 6 6 5 4 5 5 6 5 5 4 3 4 3 2 5 1 -0 7 8 6 7 5 5 8 11 13 15 15 12 11 11 10 8 8 7 5 6 5 5 6 5 7 7 3 4 3 1 5 3 1 4 5 6 6 5 3 3 3 2 1 1 1 2 1 2 2 2 4 4 2 4 6 3 4 8 5 2 4 6 8 7 7 7 6 7 6
5 5 5 5 4 4 4 5 4 3 3 3 4 6 5 5 7 1 1 10 9 6 7 8 10 12 12 14 14 11 9 8 8 9 8 7 7 6 6 5 5 7 7 8 7 5 5 5 4 5 4 5 6 4 5 5 4 4 3 4 3 1 0 2 2 2 2 1 1 3 5 5 4 5 3 4 7 5 3 4 6 8 8 6 6 7 7 6
5 4 4 5 5 5 6 5 4 4 4 5 5 6 5 4 5 1 3 11 9 5 8 9 8 8 9 8 7 7 7 5 5 8 7 5 7 7 6 5 5 7 7 6 6 4 6 5 3 3 6 7 6 4 5 4 4 4 3 5 5 1 -0 1 1 2 2 2 2 0 4 11 7 2 4 5 5 3 2 5 6 6 5 5 7 7 6 5
5 5 5 5 5 6 8 7 7 8 7 6 5 6 6 5 5 3 5 10 9 7 9 9 8 9 9 8 7 6 7 7 7 8 7 6 6 6 6 6 7 8 6 6 7 6 7 6 3 4 6 6 5 4 4 5 5 4 2 3 4 2 1 2 2 2 2 5 5 -0 3 11 4 -1 2 2 3 3 2 6 7 5 5 4 5 5 4 5
5 5 4 5 6 7 8 7 7 7 6 6 6 6 5 4 5 5 6 8 9 9 9 5 4 6 8 10 8 4 4 4 3 5 6 5 5 6 7 6 5 7 6 6 8 9 9 6 4 6 5 3 5 6 5 5 3 2 2 2 3 2 2 4 4 3 5 7 6 3 5 6 3 2 4 4 5 5 4 7 6 4 4 3 3 4 5 5
5 5 4 5 5 6 6 5 4 4 3 4 5 6 5 4 5 6 4 5 6 7 9 8 8 7 7 11 10 8 7 2 -0 4 7 7 7 7 8 8 6 6 7 6 7 9 9 7 6 6 5 5 7 7 6 5 4 4 3 4 4 1 2 4 4 3 5 6 4 6 7 6 6 2 0 5 7 4 5 8 7 6 7 4 2 4 5 5
5 5 5 5 5 5 4 3 3 4 4 3 4 6 4 2 5 7 5 4 5 4 4 7 11 9 6 8 11 12 10 6 4 5 7 9 8 8 9 9 8 6 6 7 5 5 7 7 5 5 6 7 7 7 7 7 7 7 6 6 5 3 4 5 4 4 5 6 5 5 5 5 8 3 -2 3 3 2 5 6 6 8 7 5 4 4 4 5
5 5 5 5 4 3 3 5 7 8 7 6 7 7 4 4 8 9 6 5 6 6 5 4 7 9 6 5 8 9 6 5 7 5 4 7 6 7 7 5 6 6 5 7 6 3 5 5 3 4 5 5 5 6 7 7 7 7 7 7 6 4 5 5 5 4 4 6 5 5 5 5 8 7 2 4 1 1 5 5 7 8 5 4 3 2 3 5
6 7 8 8 7 4 2 5 11 11 10 10 10 8 6 9 12 7 3 5 6 6 7 5 3 6 6 4 4 7 6 3 5 4 2 5 5 5 7 3 3 6 5 6 6 4 5 4 3 5 4 4 5 6 6 6 6 6 7 8 6 5 4 4 4 3 3 6 4 3 3 1 5 8 4 5 4 3 5 8 10 8 4 6 5 1 3 7
5 6 7 9 9 7 3 3 7 9 8 7 7 7 7 6 8 7 1 -1 2 2 4 4 3 3 5 3 0 3 5 -1 1 3 1 4 4 2 5 2 1 5 4 3 4 4 5 5 4 5 4 5 7 6 6 7 6 7 8 7 4 3 4 4 4 3 4 6 2 -3 -2 1 7 10 4 4 6 5 6 8 10 7 3 7 8 2 2 8
4 5 5 6 7 7 6 5 5 6 6 5 3 4 7 2 0 6 3 -3 -1 1 1 1 3 2 2 2 -2 1 4 -1 -0 2 -0 2 2 1 4 2 2 6 3 2 4 4 5 5 5 5 6 7 7 7 7 7 8 9 8 7 5 4 4 4 4 4 5 3 -2 -3 2 3 7 10 4 3 6 6 6 8 10 9 3 4 8 2 2 8
6 6 5 6 7 7 7 7 6 5 5 5 3 2 5 3 -2 -0 3 2 0 0 1 0 1 1 1 2 -1 0 3 -0 1 2 0 3 4 4 5 3 4 5 2 3 5 5 6 7 6 7 8 8 8 8 7 7 7 7 6 6 7 6 5 4 3 2 2 -1 -2 2 4 1 6 9 2 4 12 10 10 12 12 8 1 2 7 4 4 7
6 6 6 5 6 6 7 7 8 7 4 4 5 3 1 2 1 -1 2 5 2 1 2 2 2 1 1 3 2 1 3 3 3 3 4 7 6 5 5 4 5 4 4 7 6 5 6 8 9 8 9 9 8 10 9 8 7 5 5 4 5 8 8 7 4 2 2 1 2 5 3 3 7 6 6 17 18 10 11 12 8 6 2 2 6 6 8 7
3 4 5 4 4 4 5 6 6 6 5 4 5 4 -1 1 4 2 2 4 3 4 4 4 6 2 2 7 5 2 4 5 4 4 7 8 5 6 8 6 8 8 8 9 9 8 7 10 12 9 9 9 8 10 10 9 8 5 5 4 5 7 6 6 6 6 6 3 3 4 3 4 4 6 16 20 8 4 9 4 -1 3 3 3 7 10 12 9
5 3 4 4 4 4 3 4 4 4 5 4 3 3 2 3 4 3 3 4 4 6 5 5 7 3 5 9 5 4 7 6 6 6 8 8 7 9 10 9 10 10 9 9 8 7 5 7 9 7 7 8 7 8 7 7 7 6 6 7 8 6 4 6 6 6 6 3 5 7 4 2 2 8 13 7 1 6 5 -5 -4 5 8 9 10 12 12 8
8 5 5 5 5 6 5 4 5 4 4 4 4 4 3 4 6 5 6 7 6 7 7 6 7 5 8 9 6 6 8 6 8 7 8 9 8 9 7 7 7 6 6 5 5 7 3 1 5 8 7 7 7 6 6 8 8 8 9 9 9 7 7 7 3 4 7 4 5 8 6 3 5 7 5 -0 2 4 -0 2 9 13 15 12 8 11 12 8
8 5 5 6 5 6 7 6 5 4 5 6 4 5 4 5 7 7 6 7 7 8 8 6 6 6 8 8 6 7 6 5 7 6 5 6 5 5 5 5 5 3 4 4 3 7 6 0 1 4 4 4 4 4 5 8 8 7 9 9 8 7 6 5 4 6 9 5 4 6 5 3 6 10 10 3 0 2 7 14 13 10 12 10 7 11 11 8
8 6 4 4 4 4 5 7 7 5 6 7 6 6 7 7 8 7 7 8 7 8 7 5 7 7 6 6 5 5 4 4 4 3 3 4 3 4 4 4 4 4 5 6 5 8 10 6 2 0 4 4 3 6 8 8 7 6 8 9 8 9 9 8 8 8 9 9 9 9 5 1 4 10 8 2 2 8 11 9 7 8 11 9 10 13 10 8
7 7 5 5 6 6 7 9 10 8 8 9 9 8 8 7 7 6 7 8 7 7 6 5 6 5 4 4 3 3 3 3 3 2 3 3 3 5 6 6 8 9 11 11 10 11 12 13 10 5 6 7 7 9 8 6 7 9 11 10 8 9 8 7 6 5 7 10 10 14 13 8 7 7 2 4 9 10 7 6 9 12 13 14 15 13 10 10
9 8 6 8 10 8 9 11 10 10 9 7 7 7 6 6 6 5 6 6 5 5 5 5 5 3 3 3 3 2 3 2 3 4 5 7 9 11 13 14 14 14 13 11 10 10 11 13 12 6 5 8 9 9 8 9 9 8 9 9 8 9 8 7 5 3 5 6 9 17 16 9 11 10 9 14 14 10 10 12 13 15 17 19 18 14 11 13
9 9 7 8 9 6 7 8 6 6 6 4 4 5 5 4 5 5 5 5 5 4 4 3 3 3 3 4 4 6 7 8 11 13 15 16 17 16 15 14 11 8 7 6 5 7 8 9 9 6 7 10 10 10 11 11 11 12 13 12 11 11 11 12 13 12 9 6 10 14 8 9 19 19 17 19 13 11 14 13 14 17 16 17 17 14 11 12
6 6 5 5 5 3 5 6 4 5 5 4 4 4 3 4 5 5 5 5 5 5 6 6 7 9 10 11 13 14 15 15 16 16 16 15 14 11 8 5 2 1 1 1 2 3 3 5 7 5 7 11 14 14 13 10 12 14 14 14 15 15 14 12 15 18 15 14 20 15 3 11 24 21 17 18 13 13 17 15 15 14 13 15 15 12 9 8
4 4 4 5 5 4 5 5 4 4 5 5 5 4 4 5 5 5 7 8 9 11 13 14 15 15 15 15 15 14 14 12 11 11 9 8 7 5 3 1 1 1 0 0 1 2 4 7 8 6 7 11 12 11 11 9 12 13 11 14 18 18 16 14 13 14 13 19 23 11 3 15 25 21 19 17 12 13 16 15 12 9 11 14 12 10 8 7
5 6 6 5 4 3 5 5 4 4 5 4 5 6 7 10 11 12 15 15 15 16 16 15 15 13 11 11 11 10 9 7 7 7 6 6 6 6 6 5 3 2 2 2 3 5 9 12 14 15 17 19 18 16 13 12 14 12 12 15 15 12 13 13 11 8 9 14 12 4 6 16 21 22 20 16 12 11 14 15 11 9 11 13 11 10 8 8
6 5 5 3 3 5 6 5 5 6 8 10 13 15 15 17 17 16 15 13 13 12 9 8 8 8 7 6 7 7 6 6 7 8 8 8 8 8 7 5 4 4 4 5 7 10 13 14 15 18 22 27 30 27 24 25 23 19 20 22 19 16 16 13 11 11 13 13 9 7 12 15 16 18 16 13 12 10 12 13 9 7 10 11 12 10 7 9
5 5 5 6 8 10 10 10 13 16 17 18 18 16 15 14 12 11 9 7 7 6 5 4 3 3 4 4 5 6 6 7 9 10 10 9 8 7 5 4 6 6 6 8 10 14 17 16 16 19 22 26 26 22 23 25 25 29 34 26 15 13 16 16 17 17 15 13 9 9 12 11 12 15 14 13 13 12 13 12 6 6 8 9 9 9 9 9
7 8 10 11 13 15 17 17 19 18 16 14 11 8 8 8 5 4 4 3 3 3 3 4 4 6 7 6 7 7 7 10 11 9 8 6 5 6 6 7 8 9 9 10 10 13 15 14 16 19 22 24 23 23 27 28 28 35 35 21 12 16 18 16 14 11 8 9 11 11 11 6 5 12 13 10 8 10 11 9 4 1 2 4 7 10 13 12
13 14 16 16 16 17 16 13 11 9 7 6 5 4 4 5 4 4 4 6 7 7 8 8 9 10 10 9 9 8 8 8 6 4 5 5 5 7 8 9 10 9 10 10 8 11 12 10 12 15 16 18 17 19 25 24 25 33 34 25 20 19 15 12 14 16 11 9 11 10 7 5 7 13 11 2 -0 5 8 5 2 1 4 10 11 10 10 9
18 17 17 15 12 9 8 7 7 6 5 5 6 6 5 5 6 6 8 8 9 10 11 11 10 9 9 9 10 10 9 9 7 6 7 7 8 9 9 10 10 8 9 8 6 9 10 6 6 7 9 14 12 13 21 18 13 27 39 27 8 6 11 14 18 22 19 15 17 16 11 13 16 13 5 -0 3 10 10 6 4 5 8 9 7 7 9 9
13 11 11 10 7 6 7 8 7 7 7 6 6 6 5 4 3 4 6 5 7 9 9 10 10 9 9 9 9 10 11 11 11 9 9 8 8 9 9 9 9 7 7 7 6 11 12 7 6 2 1 9 6 3 18 21 11 23 34 14 -3 9 21 18 15 16 15 15 17 13 7 8 11 8 5 7 10 15 20 20 17 18 19 16 13 13 14 15
8 7 10 9 5 6 7 4 3 5 3 2 3 2 3 3 2 3 4 3 7 8 7 9 9 9 10 10 11 12 10 8 9 8 9 10 9 10 10 9 8 6 7 7 8 14 13 6 9 2 -7 5 5 -8 7 21 11 17 23 4 0 16 16 12 18 17 12 12 13 11 8 7 8 9 9 9 8 9 15 18 17 20 21 19 16 13 10 10
8 6 8 5 -0 1 2 0 1 1 -1 0 3 2 2 2 2 4 4 4 9 10 9 12 10 9 10 9 8 9 7 7 8 7 7 9 9 9 8 8 7 5 7 8 8 15 13 7 12 5 -10 2 7 -11 -3 14 10 16 20 3 1 14 10 11 24 21 12 13 13 10 11 12 13 14 12 10 10 10 9 8 7 7 8 8 8 9 8 8
Height
5774 5777 5780 5782 5785 5788 5790 5792 5794 5795 5797 5798 5800 5801 5802 5803 5804 5805 5806 5807 5808 5809 5810 5811 5813 5814 5815 5817 5818 5819 5820 5821 5822 5822 5823 5824 5824 5825 5826 5827 5828 5829 5830 5831 5833 5834 5834 5835 5836 5836 5836 5837 5837 5837 5837 5837 5836 5835 5834 5834 5833 5832 5831 5830 5829 5827 5826 5824 5822 5821 5819 5817 5815 5812 5810 5808 5806 5804 5801 5799 5796 5793 5791 5788 5785 5783 5780 5778
5773 5776 5779 5782 5785 5787 5789 5791 5793 5795 5796 5798 5799 5800 5801 5802 5802 5803 5804 5806 5807 5808 5809 5811 5812 5814 5815 5816 5817 5819 5820 5821 5822 5823 5823 5824 5825 5826 5827 5828 5829 5830 5831 5832 5834 5834 5835 5835 5836 5837 5837 5837 5838 5838 5837 5836 5836 5835 5834 5833 5833 5832 5831 5830 5828 5827 5826 5824 5822 5820 5818 5816 5814 5811 5809 5807 5805 5802 5799 5797 5794 5791 5789 5786 5783 5781 5778 5776
5773 5776 5779 5782 5785 5787 5789 5790 5792 5794 5795 5797 5798 5799 5799 5800 5801 5802 5803 5804 5806 5807 5809 5810 5812 5813 5815 5816 5817 5819 5820 5821 5822 5823 5824 5825 5826 5827 5828 5829 5830 5831 5832 5833 5834 5835 5836 5836 5837 5837 5838 5838 5838 5837 5837 5836 5835 5834 5834 5833 5833 5832 5831 5830 5828 5827 5825 5824 5821 5819 5817 5815 5813 5810 5808 5805 5803 5800 5798 5795 5792 5790 5787 5784 5781 5779 5776 5774
5774 5777 5780 5782 5785 5787 5789 5790 5792 5793 5795 5796 5797 5797 5798 5799 5800 5801 5802 5804 5805 5807 5808 5810 5812 5813 5814 5816 5817 5819 5821 5822 5823 5824 5825 5826 5827 5828 5829 5830 5831 5832 5833 5834 5835 5836 5836 5837 5838 5838 5838 5838 5838 5837 5836 5836 5835 5834 5834 5833 5832 5832 5831 5829 5828 5827 5825 5823 5821 5818 5816 5814 5812 5809 5806 5804 5801 5799 5796 5793 5790 5788 5785 5782 5780 5777 5775 5772
5776 5778 5781 5783 5785 5787 5789 5790 5792 5793 5794 5795 5796 5796 5797 5798 5799 5800 5802 5803 5805 5807 5808 5810 5812 5813 5815 5816 5818 5820 5822 5823 5824 5825 5826 5827 5828 5829 5830 5831 5832 5833 5834 5835 5836 5836 5837 5838 5839 5839 5838 5838 5838 5837 5836 5836 5835 5834 5834 5833 5832 5831 5830 5829 5828 5826 5825 5822 5820 5818 5815 5813 5811 5808 5805 5802 5800 5797 5794 5791 5789 5786 5784 5781 5778 5776 5773 5770
5778 5780 5782 5784 5786 5788 5789 5791 5792 5793 5794 5795 5795 5796 5796 5797 5798 5799 5801 5802 5804 5806 5808 5810 5812 5814 5815 5817 5819 5821 5823 5824 5825 5826 5827 5828 5829 5830 5831 5832 5833 5834 5835 5836 5836 5837 5838 5839 5839 5839 5839 5838 5837 5837 5836 5836 5835 5834 5834 5833 5832 5831 5830 5828 5827 5826 5824 5821 5819 5817 5814 5812 5809 5806 5803 5800 5798 5795 5792 5790 5787 5785 5783 5780 5777 5774 5771 5768
5780 5782 5784 5786 5787 5789 5790 5792 5793 5794 5794 5795 5795 5795 5795 5796 5797 5798 5799 5801 5804 5806 5808 5811 5813 5815 5817 5818 5820 5822 5823 5825 5826 5827 5828 5829 5830 5831 5831 5832 5833 5834 5835 5837 5838 5839 5839 5840 5839 5839 5838 5838 5837 5837 5836 5836 5835 5834 5834 5833 5832 5831 5829 5828 5826 5825 5823 5821 5818 5816 5813 5810 5807 5804 5802 5799 5796 5793 5791 5788 5786 5783 5781 5779 5776 5773 5769 5766
5783 5784 5786 5787 5789 5790 5791 5793 5793 5794 5794 5795 5795 5794 5794 5794 5795 5796 5798 5800 5803 5806 5809 5812 5814 5816 5818 5819 5821 5823 5824 5826 5826 5828 5829 5830 5830 5831 5832 5833 5834 5836 5837 5838 5839 5840 5840 5840 5839 5839 5838 5838 5837 5837 5836 5836 5835 5834 5833 5832 5831 5830 5829 5827 5826 5824 5822 5819 5817 5814 5812 5809 5806 5803 5800 5797 5794 5791 5789 5786 5784 5782 5779 5777 5774 5771 5768 5765
5785 5787 5788 5789 5791 5792 5793 5793 5794 5795 5795 5795 5795 5794 5794 5793 5793 5794 5796 5799 5803 5807 5810 5813 5815 5817 5819 5821 5822 5824 5825 5826 5827 5829 5829 5830 5831 5832 5833 5834 5836 5837 5838 5839 5840 5840 5840 5840 5839 5839 5838 5838 5837 5837 5836 5836 5835 5834 5833 5832 5831 5829 5828 5826 5824 5822 5820 5818 5815 5813 5810 5807 5804 5802 5799 5796 5793 5790 5787 5784 5782 5780 5778 5775 5772 5770 5767 5764
5788 5789 5790 5791 5792 5793 5794 5794 5795 5796 5796 5796 5796 5795 5794 5793 5793 5793 5796 5800 5804 5808 5811 5814 5817 5818 5820 5822 5823 5825 5826 5827 5828 5829 5830 5831 5832 5833 5835 5836 5837 5839 5840 5840 5840 5840 5840 5840 5839 5839 5838 5838 5838 5837 5836 5835 5835 5834 5832 5831 5830 5828 5827 5825 5823 5821 5819 5816 5814 5811 5808 5806 5803 5800 5797 5794 5791 5788 5785 5783 5781 5779 5776 5773 5770 5767 5765 5762
5790 5791 5792 5793 5794 5795 5795 5796 5797 5798 5798 5798 5798 5797 5796 5795 5795 5796 5799 5802 5806 5810 5813 5816 5818 5820 5822 5823 5825 5826 5827 5828 5829 5831 5832 5833 5834 5835 5837 5838 5839 5840 5840 5841 5840 5840 5840 5840 5839 5839 5838 5838 5838 5837 5836 5835 5834 5833 5832 5831 5829 5827 5826 5824 5822 5819 5817 5814 5812 5809 5807 5804 5802 5799 5796 5793 5790 5787 5784 5782 5779 5776 5774 5771 5768 5765 5763 5760
5792 5793 5794 5795 5796 5797 5798 5799 5799 5800 5800 5800 5800 5799 5799 5799 5800 5801 5803 5806 5810 5812 5815 5818 5820 5822 5824 5825 5826 5828 5829 5830 5831 5833 5834 5835 5836 5837 5838 5840 5840 5841 5841 5841 5841 5840 5840 5840 5839 5839 5838 5838 5837 5837 5836 5835 5834 5832 5831 5830 5828 5826 5825 5823 5820 5818 5815 5813 5810 5808 5805 5803 5800 5797 5794 5791 5788 5785 5782 5780 5777 5774 5772 5769 5766 5764 5761 5758
5795 5796 5797 5798 5799 5800 5800 5801 5802 5802 5802 5802 5802 5802 5802 5803 5805 5807 5809 5811 5813 5816 5819 5821 5822 5824 5825 5826 5828 5829 5831 5832 5833 5835 5836 5837 5838 5839 5840 5841 5841 5841 5841 5841 5841 5841 5840 5840 5839 5839 5838 5838 5837 5836 5835 5834 5833 5832 5830 5829 5827 5825 5823 5821 5819 5816 5814 5811 5809 5806 5804 5802 5799 5796 5793 5790 5786 5783 5781 5778 5775 5773 5770 5767 5765 5762 5759 5756
5798 5799 5800 5800 5801 5802 5803 5804 5804 5805 5805 5805 5805 5806 5807 5808 5810 5811 5813 5815 5817 5819 5821 5823 5825 5826 5828 5829 5830 5831 5833 5834 5836 5837 5838 5839 5840 5841 5841 5842 5842 5842 5842 5841 5841 5841 5840 5840 5840 5839 5838 5837 5837 5836 5835 5834 5832 5831 5830 5828 5826 5824 5822 5820 5817 5815 5812 5809 5807 5805 5803 5800 5797 5794 5791 5788 5785 5782 5779 5776 5773 5771 5768 5766 5763 5760 5757 5754
5800 5801 5802 5803 5804 5805 5806 5806 5807 5807 5807 5808 5808 5810 5811 5813 5814 5816 5817 5819 5820 5822 5824 5825 5827 5828 5830 5831 5832 5834 5835 5836 5838 5839 5840 5841 5841 5842 5842 5842 5842 5842 5842 5841 5841 5841 5840 5840 5839 5839 5838 5837 5836 5835 5834 5833 5832 5830 5829 5827 5825 5823 5821 5818 5816 5813 5810 5808 5806 5803 5801 5798 5795 5792 5789 5786 5783 5780 5777 5775 5772 5769 5767 5764 5761 5758 5755 5751
5803 5804 5805 5806 5807 5808 5808 5809 5809 5810 5810 5811 5812 5813 5815 5816 5818 5819 5821 5822 5823 5825 5827 5828 5829 5831 5832 5833 5835 5836 5838 5838 5839 5840 5841 5842 5842 5842 5842 5843 5842 5842 5842 5841 5841 5841 5840 5840 5839 5838 5838 5837 5836 5834 5833 5832 5831 5829 5828 5826 5824 5822 5819 5817 5814 5811 5809 5807 5804 5802 5799 5796 5793 5791 5788 5785 5781 5779 5776 5773 5770 5768 5765 5762 5759 5755 5752 5749
5806 5807 5808 5809 5810 5810 5811 5812 5812 5813 5813 5814 5815 5816 5818 5819 5821 5822 5824 5825 5827 5828 5830 5831 5832 5834 5834 5836 5837 5839 5840 5841 5841 5842 5843 5843 5843 5843 5843 5843 5843 5842 5842 5842 5841 5841 5840 5840 5839 5838 5837 5836 5835 5834 5833 5831 5830 5828 5827 5825 5822 5820 5817 5815 5813 5810 5808 5805 5803 5800 5797 5794 5791 5788 5785 5783 5780 5777 5774 5771 5768 5765 5762 5759 5756 5753 5750 5746
5809 5810 5811 5812 5813 5813 5814 5815 5816 5817 5817 5818 5819 5820 5822 5823 5825 5826 5828 5829 5831 5832 5833 5834 5836 5837 5837 5839 5840 5841 5842 5843 5844 5844 5844 5844 5844 5844 5844 5843 5843 5843 5842 5842 5841 5841 5840 5839 5839 5838 5837 5836 5834 5833 5832 5830 5829 5827 5825 5823 5821 5818 5816 5814 5811 5809 5806 5803 5801 5798 5795 5793 5790 5786 5783 5780 5778 5775 5772 5769 5766 5763 5760 5756 5753 5750 5747 5743
5813 5814 5815 5816 5817 5817 5818 5819 5820 5821 5822 5823 5823 5824 5826 5828 5830 5831 5833 5834 5835 5836 5837 5838 5839 5840 5841 5842 5843 5844 5844 5845 5845 5845 5845 5845 5845 5845 5844 5844 5844 5843 5843 5842 5841 5840 5840 5839 5838 5837 5836 5835 5834 5832 5831 5829 5828 5826 5824 5822 5819 5817 5814 5812 5810 5807 5804 5801 5799 5796 5793 5790 5788 5784 5781 5779 5776 5773 5770 5766 5763 5760 5757 5754 5750 5747 5743 5740
5817 5818 5819 5820 5821 5822 5823 5824 5825 5825 5826 5827 5828 5829 5830 5831 5833 5835 5836 5838 5839 5840 5840 5840 5841 5842 5844 5845 5845 5846 5846 5846 5846 5846 5846 5846 5846 5846 5845 5845 5845 5844 5843 5842 5841 5840 5840 5839 5838 5837 5836 5834 5833 5831 5830 5828 5826 5824 5822 5820 5817 5815 5812 5810 5808 5805 5802 5799 5796 5794 5790 5787 5785 5782 5779 5776 5773 5770 5767 5764 5760 5757 5754 5751 5747 5743 5740 5736
5821 5822 5824 5825 5826 5827 5828 5829 5830 5830 5830 5831 5832 5833 5833 5834 5836 5837 5838 5841 5842 5842 5843 5843 5844 5844 5845 5846 5847 5847 5847 5847 5847 5847 5847 5847 5847 5847 5846 5846 5845 5844 5844 5843 5842 5841 5840 5839 5838 5837 5835 5834 5832 5830 5829 5827 5825 5822 5820 5818 5815 5813 5810 5808 5805 5802 5800 5797 5794 5791 5788 5784 5781 5779 5776 5773 5770 5767 5764 5761 5757 5754 5751 5747 5744 5740 5736 5732
5825 5827 5828 5829 5830 5831 5832 5833 5834 5834 5834 5835 5836 5836 5836 5837 5839 5838 5841 5844 5845 5844 5845 5845 5846 5846 5847 5847 5848 5848 5848 5848 5848 5848 5848 5847 5847 5847 5847 5846 5845 5845 5844 5843 5842 5841 5840 5838 5837 5836 5834 5832 5830 5829 5827 5825 5823 5820 5818 5816 5813 5810 5808 5805 5802 5800 5797 5794 5791 5788 5785 5782 5778 5776 5773 5770 5767 5764 5761 5758 5754 5751 5748 5744 5741 5737 5733 5729
5830 5831 5832 5833 5834 5835 5836 5837 5838 5838 5839 5839 5839 5839 5840 5841 5841 5842 5844 5847 5847 5846 5847 5847 5847 5848 5848 5848 5848 5849 5849 5849 5848 5848 5848 5848 5848 5848 5847 5846 5846 5845 5844 5843 5842 5841 5839 5838 5836 5835 5833 5831 5829 5827 5825 5823 5821 5818 5816 5813 5810 5808 5805 5803 5800 5797 5794 5791 5788 5785 5783 5779 5776 5773 5770 5767 5764 5760 5757 5754 5751 5748 5745 5741 5737 5733 5729 5725
5835 5835 5837 5838 5838 5839 5840 5841 5842 5842 5842 5842 5842 5843 5843 5844 5845 5845 5846 5848 5849 5848 5848 5848 5849 5849 5850 5849 5849 5850 5850 5850 5850 5850 5849 5849 5848 5848 5847 5847 5846 5845 5844 5843 5842 5840 5838 5837 5835 5833 5831 5829 5827 5825 5823 5821 5818 5816 5813 5811 5808 5805 5802 5800 5797 5794 5791 5788 5785 5782 5780 5777 5773 5770 5768 5765 5761 5757 5754 5751 5747 5745 5742 5738 5734 5729 5725 5722
5839 5840 5840 5841 5842 5843 5844 5844 5845 5845 5844 5845 5845 5846 5846 5846 5847 5848 5849 5850 5850 5850 5850 5850 5851 5851 5851 5851 5851 5851 5851 5851 5851 5850 5850 5849 5849 5848 5848 5847 5846 5845 5844 5843 5841 5839 5837 5835 5833 5831 5829 5827 5825 5823 5821 5818 5816 5814 5811 5808 5805 5802 5799 5796 5793 5791 5788 5785 5781 5778 5776 5775 5770 5765 5763 5761 5757 5754 5750 5747 5744 5740 5737 5733 5730 5726 5721 5717
5843 5843 5844 5845 5845 5846 5847 5847 5847 5847 5847 5847 5848 5848 5849 5849 5849 5850 5850 5852 5852 5851 5852 5852 5852 5852 5852 5852 5852 5852 5851 5852 5852 5851 5850 5850 5849 5849 5848 5847 5845 5844 5843 5841 5839 5838 5836 5834 5832 5830 5827 5825 5823 5821 5819 5816 5813 5811 5808 5805 5802 5799 5796 5793 5790 5787 5784 5781 5778 5774 5771 5771 5768 5762 5758 5756 5753 5750 5746 5743 5740 5736 5732 5728 5725 5721 5717 5713
5847 5847 5847 5848 5848 5849 5849 5849 5850 5850 5850 5850 5850 5851 5851 5851 5851 5852 5853 5853 5853 5853 5853 5854 5854 5854 5853 5853 5853 5853 5852 5852 5852 5851 5851 5850 5849 5848 5847 5846 5844 5843 5841 5839 5837 5835 5833 5832 5829 5827 5825 5823 5821 5818 5816 5813 5810 5807 5805 5802 5799 5796 5793 5790 5787 5783 5781 5778 5775 5771 5767 5765 5765 5759 5755 5753 5749 5746 5743 5738 5735 5731 5726 5722 5719 5716 5712 5708
5850 5850 5850 5851 5851 5851 5852 5852 5853 5853 5852 5852 5853 5853 5853 5853 5854 5854 5855 5855 5855 5854 5855 5855 5855 5854 5854 5854 5853 5853 5853 5853 5852 5851 5850 5849 5848 5846 5845 5844 5842 5841 5839 5837 5835 5833 5831 5829 5827 5825 5822 5820 5818 5815 5813 5810 5807 5804 5801 5799 5796 5793 5789 5787 5784 5780 5777 5775 5771 5768 5764 5761 5760 5755 5751 5750 5746 5742 5739 5734 5730 5726 5722 5718 5714 5710 5707 5703
5853 5853 5853 5854 5854 5854 5854 5855 5855 5855 5855 5855 5855 5855 5855 5856 5856 5856 5856 5856 5856 5856 5855 5855 5855 5855 5854 5854 5854 5853 5853 5852 5851 5850 5849 5847 5846 5845 5843 5842 5840 5839 5837 5835 5833 5831 5829 5827 5825 5822 5820 5817 5815 5812 5809 5806 5803 5801 5798 5795 5792 5789 5786 5783 5780 5777 5774 5771 5767 5764 5761 5757 5756 5752 5746 5744 5742 5737 5734 5729 5725 5721 5718 5714 5709 5705 5701 5698
5855 5856 5856 5856 5857 5857 5857 5857 5857 5857 5857 5858 5858 5858 5858 5857 5857 5858 5858 5857 5857 5856 5856 5856 5855 5855 5854 5854 5853 5853 5852 5851 5850 5848 5847 5846 5845 5843 5842 5840 5839 5837 5835 5833 5832 5829 5827 5825 5822 5819 5817 5814 5811 5808 5806 5803 5800 5797 5794 5791 5788 5785 5783 5779 5777 5773 5769 5767 5764 5761 5757 5752 5750 5748 5743 5739 5737 5734 5730 5726 5721 5716 5713 5710 5705 5699 5696 5693
5858 5858 5858 5858 5859 5859 5859 5859 5859 5859 5859 5859 5859 5859 5859 5859 5859 5859 5859 5858 5858 5857 5856 5856 5855 5855 5854 5854 5853 5852 5851 5850 5849 5847 5846 5845 5843 5842 5840 5839 5837 5835 5833 5831 5829 5827 5824 5822 5819 5816 5813 5811 5808 5805 5802 5799 5796 5793 5790 5787 5784 5781 5778 5775 5773 5769 5766 5763 5760 5756 5753 5749 5746 5743 5739 5735 5732 5729 5726 5722 5717 5712 5709 5706 5700 5694 5691 5688
5860 5860 5861 5861 5861 5861 5861 5861 5860 5861 5861 5861 5861 5861 5861 5861 5860 5860 5859 5858 5858 5857 5857 5856 5855 5855 5854 5853 5852 5851 5850 5849 5847 5846 5845 5843 5842 5840 5838 5837 5835 5833 5831 5829 5827 5825 5821 5818 5816 5813 5810 5807 5805 5802 5799 5796 5792 5789 5786 5782 5779 5776 5773 5771 5768 5765 5762 5759 5756 5753 5749 5746 5743 5739 5735 5731 5727 5723 5720 5716 5712 5708 5705 5702 5697 5691 5686 5683
5862 5862 5862 5862 5862 5862 5862 5862 5862 5862 5862 5862 5862 5862 5862 5862 5861 5860 5859 5858 5858 5858 5857 5856 5855 5854 5853 5852 5851 5850 5849 5847 5846 5844 5843 5841 5840 5838 5836 5835 5833 5831 5829 5827 5825 5823 5819 5816 5813 5811 5807 5804 5801 5798 5795 5792 5789 5785 5782 5778 5774 5770 5767 5765 5763 5760 5758 5755 5752 5749 5745 5743 5741 5735 5729 5725 5721 5717 5713 5710 5706 5702 5699 5696 5693 5688 5683 5678
5864 5864 5864 5864 5864 5864 5863 5863 5863 5863 5863 5863 5863 5862 5862 5862 5861 5860 5859 5859 5858 5858 5857 5856 5855 5854 5853 5852 5850 5849 5848 5846 5845 5843 5842 5840 5838 5836 5835 5833 5831 5829 5827 5824 5822 5820 5817 5813 5810 5808 5805 5801 5799 5795 5792 5789 5785 5782 5778 5774 5770 5766 5762 5759 5757 5754 5751 5750 5749 5746 5742 5739 5737 5732 5724 5717 5715 5711 5707 5704 5700 5696 5693 5691 5688 5684 5678 5674
5865 5865 5865 5865 5865 5865 5864 5864 5864 5864 5864 5863 5863 5862 5862 5861 5860 5860 5859 5859 5858 5857 5856 5855 5854 5853 5852 5851 5849 5848 5847 5845 5843 5842 5840 5838 5836 5834 5832 5830 5828 5826 5824 5822 5819 5817 5815 5811 5808 5805 5802 5799 5796 5792 5789 5785 5782 5778 5775 5770 5766 5762 5758 5754 5751 5748 5744 5742 5744 5743 5739 5736 5734 5730 5721 5712 5709 5705 5701 5699 5695 5690 5687 5684 5681 5677 5673 5669
5866 5866 5866 5866 5866 5865 5865 5865 5865 5864 5864 5864 5863 5863 5862 5861 5860 5860 5859 5858 5858 5857 5856 5855 5854 5853 5851 5850 5848 5847 5845 5844 5842 5840 5838 5836 5834 5832 5830 5828 5826 5823 5821 5819 5816 5814 5812 5809 5805 5802 5799 5796 5793 5789 5786 5782 5778 5774 5771 5766 5762 5758 5754 5749 5745 5743 5738 5734 5736 5737 5734 5732 5732 5728 5719 5710 5704 5699 5695 5694 5689 5684 5681 5676 5673 5670 5667 5663
5867 5867 5867 5867 5867 5866 5866 5866 5865 5865 5864 5864 5863 5863 5862 5861 5860 5859 5859 5858 5857 5856 5855 5854 5853 5852 5850 5848 5847 5845 5844 5842 5840 5838 5836 5834 5831 5829 5827 5825 5823 5820 5818 5816 5813 5810 5809 5807 5803 5799 5796 5793 5789 5786 5782 5778 5774 5770 5766 5762 5758 5753 5749 5744 5738 5736 5732 5726 5727 5730 5729 5727 5725 5722 5716 5707 5700 5695 5691 5688 5683 5679 5675 5671 5667 5664 5661 5658
5868 5868 5867 5867 5867 5867 5866 5866 5865 5865 5864 5864 5863 5862 5861 5861 5860 5859 5858 5857 5856 5855 5854 5853 5852 5850 5849 5847 5845 5843 5841 5839 5838 5835 5833 5831 5829 5826 5824 5822 5819 5817 5814 5812 5809 5806 5804 5803 5801 5796 5791 5788 5785 5781 5778 5774 5770 5766 5761 5757 5752 5747 5743 5738 5733 5728 5724 5719 5716 5720 5722 5723 5720 5715 5708 5700 5694 5691 5688 5684 5680 5675 5670 5666 5661 5659 5656 5653
5869 5868 5868 5868 5868 5867 5866 5866 5865 5865 5864 5864 5863 5862 5861 5860 5859 5858 5857 5856 5855 5854 5853 5852 5850 5849 5847 5845 5844 5842 5839 5837 5835 5833 5831 5828 5826 5823 5821 5818 5816 5813 5811 5808 5805 5802 5799 5797 5796 5792 5787 5783 5780 5776 5772 5768 5765 5761 5757 5752 5747 5742 5737 5732 5729 5723 5717 5711 5707 5707 5712 5717 5716 5708 5700 5694 5689 5686 5681 5677 5676 5671 5666 5660 5656 5653 5650 5648
5869 5869 5869 5868 5868 5867 5866 5866 5865 5865 5864 5863 5863 5861 5861 5860 5859 5858 5857 5856 5854 5853 5852 5850 5849 5847 5845 5844 5841 5839 5837 5835 5832 5830 5828 5825 5823 5820 5818 5815 5812 5810 5807 5804 5801 5799 5796 5793 5792 5789 5785 5779 5775 5771 5767 5763 5759 5755 5751 5746 5741 5736 5730 5724 5722 5720 5712 5704 5700 5696 5698 5708 5711 5701 5693 5689 5684 5680 5674 5669 5668 5665 5661 5656 5652 5648 5644 5641
5870 5870 5869 5869 5868 5867 5867 5866 5865 5865 5864 5863 5862 5861 5860 5859 5858 5857 5856 5855 5853 5852 5850 5848 5847 5845 5843 5841 5839 5837 5835 5832 5830 5827 5825 5823 5820 5817 5815 5812 5809 5806 5804 5801 5797 5794 5792 5789 5787 5785 5782 5776 5771 5766 5762 5758 5754 5749 5745 5740 5735 5730 5724 5716 5712 5712 5707 5700 5696 5689 5685 5697 5704 5694 5686 5683 5678 5674 5669 5662 5659 5658 5654 5651 5647 5643 5639 5634
5871 5870 5870 5869 5868 5867 5867 5866 5865 5865 5864 5863 5862 5861 5860 5858 5857 5856 5855 5853 5852 5850 5848 5846 5845 5843 5841 5839 5837 5835 5832 5830 5828 5825 5822 5820 5817 5815 5812 5809 5806 5803 5800 5797 5793 5790 5786 5783 5782 5781 5777 5771 5766 5761 5757 5753 5750 5745 5739 5734 5728 5723 5718 5710 5703 5700 5699 5696 5692 5683 5677 5687 5696 5689 5679 5675 5671 5668 5663 5656 5652 5650 5647 5644 5641 5638 5633 5628
5871 5871 5870 5869 5868 5867 5867 5866 5865 5864 5863 5862 5861 5860 5859 5857 5856 5855 5853 5852 5850 5849 5847 5845 5843 5841 5839 5837 5835 5833 5830 5828 5826 5823 5820 5818 5815 5812 5809 5806 5803 5799 5796 5793 5789 5786 5781 5777 5775 5775 5773 5768 5762 5756 5752 5748 5745 5740 5734 5727 5722 5717 5712 5706 5699 5693 5691 5690 5685 5677 5671 5677 5686 5682 5673 5669 5665 5662 5658 5651 5645 5642 5639 5638 5635 5631 5627 5622
5872 5871 5870 5869 5868 5867 5866 5865 5865 5864 5862 5861 5860 5859 5857 5856 5855 5853 5852 5850 5849 5847 5845 5843 5841 5839 5837 5835 5833 5831 5828 5826 5823 5821 5818 5815 5812 5809 5806 5803 5799 5796 5792 5789 5785 5782 5777 5771 5766 5764 5763 5759 5755 5750 5745 5742 5739 5733 5727 5720 5714 5711 5706 5701 5695 5689 5684 5683 5680 5672 5664 5667 5674 5673 5667 5664 5661 5658 5653 5647 5640 5635 5632 5631 5629 5626 5621 5617
5871 5871 5870 5869 5868 5867 5866 5865 5864 5863 5862 5860 5859 5857 5856 5855 5853 5852 5850 5849 5847 5846 5844 5842 5840 5838 5836 5834 5831 5829 5826 5824 5821 5818 5815 5812 5809 5806 5802 5799 5796 5792 5789 5785 5782 5778 5774 5768 5763 5757 5752 5746 5742 5739 5735 5733 5731 5727 5722 5714 5707 5704 5701 5696 5691 5686 5680 5677 5675 5670 5661 5660 5665 5664 5660 5659 5656 5652 5649 5643 5637 5632 5627 5625 5623 5619 5616 5612
5871 5870 5869 5868 5867 5866 5865 5864 5863 5862 5860 5859 5858 5857 5856 5854 5853 5851 5850 5848 5846 5845 5843 5841 5839 5837 5834 5832 5829 5827 5824 5821 5819 5816 5812 5809 5806 5803 5799 5796 5792 5788 5785 5780 5777 5775 5771 5766 5762 5757 5751 5742 5736 5733 5729 5726 5723 5720 5717 5709 5702 5700 5698 5693 5688 5684 5677 5670 5669 5668 5660 5655 5658 5657 5652 5652 5650 5647 5644 5638 5632 5627 5623 5620 5617 5613 5609 5606
5871 5870 5869 5868 5866 5865 5864 5863 5862 5861 5859 5858 5858 5856 5855 5853 5852 5850 5849 5847 5845 5843 5841 5839 5837 5835 5833 5830 5827 5825 5822 5819 5816 5813 5810 5807 5803 5799 5796 5792 5788 5784 5780 5777 5773 5770 5767 5764 5760 5757 5751 5743 5735 5730 5727 5722 5717 5713 5710 5705 5699 5696 5694 5690 5685 5680 5673 5665 5663 5663 5658 5653 5653 5651 5645 5644 5643 5641 5638 5631 5624 5620 5617 5614 5611 5606 5603 5600
5870 5869 5868 5867 5866 5865 5864 5863 5861 5860 5859 5858 5857 5855 5854 5853 5851 5849 5848 5846 5844 5842 5839 5837 5835 5832 5830 5827 5825 5822 5820 5817 5814 5811 5807 5804 5800 5796 5792 5789 5785 5781 5777 5773 5769 5766 5763 5760 5757 5755 5751 5743 5735 5730 5725 5720 5715 5710 5706 5700 5696 5693 5689 5685 5681 5677 5670 5663 5658 5657 5654 5650 5648 5644 5640 5638 5636 5634 5630 5623 5615 5612 5610 5608 5604 5600 5596 5593
5869 5868 5867 5866 5866 5865 5864 5862 5861 5860 5859 5857 5856 5855 5854 5852 5850 5848 5846 5844 5842 5839 5837 5834 5832 5830 5827 5824 5822 5819 5816 5814 5811 5808 5804 5801 5797 5793 5789 5785 5781 5777 5773 5768 5764 5761 5759 5756 5753 5752 5750 5744 5736 5730 5724 5717 5712 5708 5703 5697 5692 5690 5686 5680 5677 5673 5667 5661 5656 5651 5647 5645 5642 5637 5633 5631 5629 5626 5622 5614 5605 5603 5603 5601 5597 5593 5588 5585
5869 5868 5867 5866 5865 5865 5863 5862 5861 5859 5858 5857 5856 5854 5852 5851 5849 5846 5844 5842 5840 5837 5834 5832 5829 5827 5824 5821 5818 5816 5813 5810 5807 5804 5801 5797 5793 5790 5786 5781 5777 5773 5769 5765 5761 5757 5754 5752 5748 5746 5745 5741 5735 5729 5723 5716 5709 5704 5699 5695 5690 5686 5682 5678 5674 5670 5664 5658 5653 5647 5642 5639 5637 5632 5627 5625 5622 5619 5615 5606 5597 5596 5596 5593 5589 5585 5581 5578
5869 5868 5867 5866 5865 5865 5863 5862 5861 5859 5858 5856 5855 5853 5851 5848 5846 5844 5842 5839 5837 5834 5832 5829 5826 5824 5821 5818 5816 5813 5810 5807 5804 5800 5797 5794 5790 5786 5782 5778 5774 5770 5766 5762 5758 5753 5750 5746 5743 5740 5738 5735 5730 5725 5721 5715 5708 5701 5696 5691 5686 5680 5677 5674 5670 5665 5659 5653 5648 5643 5639 5635 5632 5627 5622 5619 5617 5614 5609 5600 5591 5590 5590 5586 5582 5578 5574 5571
5870 5869 5867 5866 5866 5864 5863 5861 5860 5858 5857 5855 5853 5850 5848 5846 5844 5842 5839 5837 5834 5832 5829 5826 5824 5821 5818 5816 5813 5810 5807 5804 5801 5797 5793 5790 5786 5783 5779 5775 5771 5766 5763 5758 5754 5750 5745 5742 5738 5734 5731 5729 5725 5720 5716 5712 5705 5699 5692 5685 5680 5676 5673 5671 5667 5661 5655 5649 5643 5639 5636 5632 5627 5622 5618 5614 5613 5610 5604 5595 5586 5584 5583 5579 5575 5572 5568 5564